Flag for Turkey Weather past 2 weeks in Bodrum, Turkey

Now
85 °F

Clear.


Feels Like: 85 °F
Forecast: 71 / 87 °F
Wind: 6 mph from Southeast

Location: Bodrum

Current Time: Aug 31, 2015 at 11:36:25 PM

Latest Report: Aug 31, 2015 at 9:00 PM


Visibility: 13 mi

Pressure: 29.85 "Hg

Humidity: 47%

Dew point: 62 °F

Location of BodrumLocation

Historic Weather in Bodrum — Graph

°F

Bodrum temperature yesterday

Maximum temperature yesterday: 99 °F (at 2:00 PM)
Minimum temperature yesterday: 81 °F (at 3:00 AM)
Average temperature yesterday: 92 °F

Past Weeks' High & Low Weather Summary

 TemperatureHumidityPressure
High107 °F (Aug 18, 4:00 PM)83% (Aug 18, 6:00 AM)29.93 "Hg (Aug 18, 6:00 AM)
Low73 °F (Aug 24, 6:00 AM)16% (Aug 31, 12:00 PM)29.71 "Hg (Aug 23, 7:00 PM)
Average90 °F40%29.81 "Hg
* Reported Aug 16 9:00 PM — Aug 31 9:00 PM, Bodrum, Weather by CustomWeather, © 2015

Note: Actual official high and low records may vary slightly from our data, if they occured in-between our weather recording intervals... More about our weather records

Advertising

Bodrum weather history for previous 24 hours

 ConditionsComfort  
Time TempWeatherWind HumidityBarometerVisibility
9:00 PM
Mon, Aug 31
85 °FClear.6 mph47%29.85 "Hg12 mi
8:00 PM86 °FClear.8 mph52%29.84 "Hg12 mi
7:00 PM95 °FSunny.5 mph24%29.83 "Hg12 mi
6:00 PM96 °FSunny.3 mph24%29.84 "Hg12 mi
5:00 PM94 °FSunny.6 mph34%29.85 "Hg12 mi
4:00 PM97 °FSunny.6 mph30%29.85 "Hg12 mi
3:00 PM95 °FSunny.8 mph34%29.86 "Hg12 mi
2:00 PM97 °FSunny.6 mph30%29.87 "Hg12 mi
1:00 PM96 °FSunny.3 mph26%29.88 "Hg12 mi
12:00 PM98 °FSunny.7 mph16%29.88 "Hg12 mi
11:00 AM96 °FSunny.7 mph21%29.88 "Hg12 mi
10:00 AM92 °FSunny.8 mph23%29.88 "Hg12 mi
9:00 AM88 °FSunny.6 mph25%29.88 "Hg12 mi
6:00 AM85 °FClear.9 mph27%29.87 "Hg12 mi
3:00 AM85 °FClear.6 mph26%29.88 "Hg12 mi
12:00 AM86 °FClear.5 mph31%29.90 "Hg12 mi
Weather by CustomWeather, © 2015

See weather overviewHow to use our weather pages